Content
SEND FEEDBACK

Daily
Averages
Monthly
Summary
United States of America

DEDEDO, GUAM


Home > North America > United States > Guam
Elevation: 111 meters     Latitude: 13 33N     Longitude: 144 49E

WEATHER
 
SELECT A DAY
Number of Records: 209,106;   Date Range: 1/1/95 - 8/12/14
 
SHARE

PRINT THIS DATA

[ ← Previous Day ]
WEATHER ALMANAC - 17 FEBRUARY, 2013
[ Next Day → ]
[ °F ]   °C
Weather ElementAverageHighLow
Temperature25.4 °C30 °C (12:54 pm)22 °C (6:03 pm)
Dewpoint22.8 °C23.5 °C (3:54 pm)21.4 °C (10:54 am)
Humidity86.3 %100 % (4:01 pm)61 % (10:54 am)
Barometer1010.2 hPa1011.9 hPa (9:12 am)1008.1 hPa (2:54 pm)
Wind Speed28.6 km/h40.7 km/h (5:54 pm)
Wind Gust50.1 km/h (9:43 am)
Weather ElementAverage
Visibility11.7 km
Wind DirectionENE (54.2 °)

Weather ElementTotal
Precipitation7.37 mm
Cooling Degree Days7.7 (Base 18.3)
Growing Degree Days16 (Base 10)
Averaged from 36 records on 17 February, 2013
WEATHER CONDITIONS BREAKOUT
WIND DIRECTION BREAKOUT
WEATHER BY HOUR - 17 FEBRUARY, 2013
[ °F ]   °C
Local TimeTemperatureDewpointHumidityBarometerVisibilityWind DirectionWind SpeedGust SpeedPrecipitationEventsConditions
1:54 AM25.8 °C23 °C84 %1009.1 hPa16.1 kmENE (60°)20.4 km/hClear
2:54 AM25.4 °C23.1 °C87 %1008.8 hPa16.1 kmNE (50°)18.5 km/h0 mmPartly Cloudy
3:54 AM25.3 °C23 °C87 %1008.8 hPa16.1 kmENE (60°)13 km/hPartly Cloudy
4:54 AM24.7 °C22.6 °C88 %1008.5 hPa16.1 kmENE (60°)24.1 km/h0.76 mmScattered Clouds
5:54 AM24.9 °C22.5 °C86 %1009.5 hPa16.1 kmENE (60°)13 km/hPartly Cloudy
6:54 AM24.9 °C22.8 °C88 %1010.2 hPa16.1 kmNE (50°)22.2 km/hClear
7:54 AM26.2 °C22.8 °C81 %1010.5 hPa16.1 kmNE (40°)18.5 km/hScattered Clouds
8:54 AM27.6 °C23.3 °C77 %1010.8 hPa16.1 kmNE (40°)25.9 km/h40.7 km/hScattered Clouds
9:12 AM26 °C22 °C78 %1011.9 hPa16.1 kmNNE (30°)33.3 km/h48.1 km/hMostly Cloudy
9:43 AM29 °C23 °C70 %1011.5 hPa16.1 kmNE (50°)38.9 km/h50.1 km/hScattered Clouds
9:54 AM28.1 °C22.9 °C73 %1011.2 hPa16.1 kmNE (40°)35.2 km/h48.1 km/hPartly Cloudy
10:54 AM29.7 °C21.4 °C61 %1010.8 hPa16.1 kmENE (60°)35.2 km/h46.3 km/hPartly Cloudy
11:54 AM29.8 °C21.9 °C62 %1010.2 hPa16.1 kmNE (50°)33.3 km/h46.3 km/hMostly Cloudy
12:54 PM30 °C22.3 °C63 %1009.5 hPa16.1 kmNE (50°)38.9 km/h50.1 km/hMostly Cloudy
1:54 PM28.7 °C23.3 °C72 %1008.8 hPa16.1 kmNE (40°)35.2 km/h50.1 km/h0 mmRainLight Rain
2:54 PM29.5 °C22.8 °C67 %1008.1 hPa16.1 kmNE (50°)35.2 km/h48.1 km/h0 mmMostly Cloudy
3:54 PM25.4 °C23.5 °C89 %1008.5 hPa6.4 kmENE (60°)31.5 km/h44.4 km/h0.25 mmRainLight Rain
4:01 PM23 °C23 °C100 %1009.1 hPa9.7 kmNE (50°)29.6 km/h0 mmRainLight Rain
4:54 PM23.9 °C22.8 °C94 %1008.5 hPa16.1 kmENE (60°)27.8 km/h35.2 km/h0 mmMostly Cloudy
5:45 PM26 °C23 °C83 %1009.8 hPa8 kmNE (50°)25.9 km/h0 mmRainLight Rain
5:54 PM25.8 °C23.3 °C86 %1009.1 hPa2.9 kmNE (50°)40.7 km/h48.1 km/h0.51 mmRainRain
6:03 PM22 °C22 °C100 %1009.8 hPa6.4 kmENE (60°)29.6 km/h0.25 mmRainRain
6:15 PM23 °C23 °C100 %1010.2 hPa4.8 kmENE (60°)31.5 km/h0.51 mmRainLight Rain
6:23 PM22 °C22 °C100 %1010.2 hPa4.8 kmENE (60°)37 km/h48.1 km/h0.51 mmRainLight Rain
6:54 PM23.7 °C22.2 °C91 %1009.8 hPa4.8 kmEast (80°)27.8 km/h44.4 km/h0.76 mmRainLight Rain
7:54 PM23 °C22.8 °C99 %1010.2 hPa16.1 kmENE (60°)33.3 km/h42.6 km/h0.25 mmOvercast
8:12 PM23 °C23 °C100 %1011.2 hPa11.3 kmNE (50°)27.8 km/hMostly Cloudy
8:54 PM23.3 °C23.3 °C100 %1010.5 hPa16.1 kmENE (60°)24.1 km/h37 km/h0.25 mmPartly Cloudy
9:37 PM25 °C23 °C89 %1011.5 hPa9.7 kmNE (50°)25.9 km/h0 mmRainLight Rain
9:46 PM24 °C23 °C94 %1011.5 hPa6.4 kmENE (60°)24.1 km/h0 mmRainLight Rain
9:54 PM24.2 °C23.3 °C95 %1010.8 hPa4 kmENE (60°)29.6 km/h40.7 km/h0.25 mmRainLight Rain
10:07 PM24 °C23 °C94 %1011.5 hPa4.8 kmENE (60°)25.9 km/h0.51 mmRainLight Rain
10:19 PM24 °C23 °C94 %1011.5 hPa9.7 kmNE (50°)25.9 km/h0.76 mmRainLight Rain
10:47 PM24 °C23 °C94 %1011.9 hPa4.8 kmENE (60°)29.6 km/h42.6 km/h0.76 mmRainRain
10:54 PM23.9 °C22.8 °C94 %1011.2 hPa4.8 kmENE (60°)37 km/h50.1 km/h1.02 mmRainLight Rain
11:54 PM24.3 °C22.2 °C88 %1010.8 hPa16.1 kmENE (60°)24.1 km/h0 mmRainLight Rain
Hourly data recorded from PGUM, located 0 kilometers away from Dededo, Guam







STORIES FROM OUR PARTNERS